| time (UTC) | temp F | wind direction | speed knots | gust knots | rain 1hr in | rain 24hr in | rain mn in | humidity % | barometer mb |
| 20260510043122 | 62 | 248 | 0.0 | 0.0 | 0.00 | 0.00 | 0.00 | 80 | 985.5 |
| 20260510042122 | 61 | 248 | 0.0 | 0.0 | 0.00 | 0.00 | 0.00 | 80 | 985.5 |
| 20260510041122 | 61 | 248 | 0.0 | 0.0 | 0.00 | 0.00 | 0.00 | 80 | 985.5 |
| 20260510040123 | 62 | 248 | 0.0 | 0.0 | 0.00 | 0.00 | 0.00 | 81 | 985.5 |
| 20260510035143 | 62 | 248 | 0.0 | 0.0 | 0.00 | 0.00 | 0.00 | 82 | 985.5 |
| 20260510034122 | 62 | 248 | 0.0 | 0.0 | 0.00 | 0.00 | 0.00 | 82 | 985.5 |
| 20260510033122 | 62 | 248 | 0.0 | 0.0 | 0.00 | 0.00 | 0.00 | 81 | 985.5 |
| 20260510032122 | 62 | 248 | 0.0 | 0.0 | 0.00 | 0.00 | 0.00 | 81 | 985.5 |
| 20260510031123 | 63 | 248 | 0.0 | 0.0 | 0.00 | 0.00 | 0.00 | 81 | 985.2 |
| 20260510030143 | 63 | 248 | 0.0 | 0.0 | 0.00 | 0.00 | 0.00 | 81 | 985.2 |
| 20260510025122 | 63 | 248 | 0.0 | 0.0 | 0.00 | 0.00 | 0.00 | 81 | 985.2 |
| 20260510024122 | 63 | 248 | 0.0 | 0.0 | 0.00 | 0.00 | 0.00 | 81 | 985.0 |
| 20260510023122 | 63 | 248 | 0.0 | 0.0 | 0.00 | 0.00 | 0.00 | 81 | 984.9 |
| 20260510022122 | 64 | 248 | 0.0 | 0.0 | 0.00 | 0.00 | 0.00 | 79 | 984.7 |
| 20260510021122 | 64 | 248 | 0.0 | 0.0 | 0.00 | 0.00 | 0.00 | 78 | 984.6 |
| 20260510020126 | 65 | 248 | 0.0 | 0.0 | 0.00 | 0.00 | 0.00 | 77 | 984.6 |
| 20260510015129 | 65 | 248 | 0.0 | 0.0 | 0.00 | 0.00 | 0.00 | 76 | 984.4 |
| 20260510014122 | 65 | 270 | 0.0 | 0.0 | 0.00 | 0.00 | 0.00 | 75 | 984.4 |
| 20260510013123 | 66 | 248 | 0.0 | 0.0 | 0.00 | 0.00 | 0.00 | 75 | 984.2 |
| 20260510012122 | 67 | 248 | 0.0 | 0.0 | 0.00 | 0.00 | 0.00 | 73 | 984.1 |
| 20260510011122 | 67 | 248 | 0.0 | 0.0 | 0.00 | 0.00 | 0.00 | 72 | 984.0 |
| 20260510010122 | 68 | 248 | 0.0 | 0.0 | 0.00 | 0.00 | 0.00 | 72 | 984.0 |
| 20260510005144 | 69 | 248 | 0.0 | 0.0 | 0.00 | 0.00 | 0.00 | 72 | 983.9 |
| 20260510004122 | 70 | 248 | 0.0 | 0.0 | 0.00 | 0.00 | 0.00 | 71 | 983.8 |
| 20260510003122 | 71 | 248 | 0.0 | 0.0 | 0.00 | 0.00 | 0.00 | 69 | 983.7 |
| 20260510002122 | 72 | 248 | 0.0 | 0.0 | 0.00 | 0.00 | 0.00 | 67 | 983.7 |
| 20260510001122 | 73 | 248 | 0.0 | 0.0 | 0.00 | 0.00 | 0.00 | 68 | 983.7 |
| 20260510000122 | 74 | 248 | 0.0 | 0.0 | 0.00 | 0.00 | 0.00 | 65 | 983.7 |
| 20260509235122 | 74 | 270 | 0.0 | 0.0 | 0.00 | 0.00 | 0.00 | 64 | 983.6 |
| 20260509234122 | 76 | 270 | 0.0 | 0.0 | 0.00 | 0.00 | 0.00 | 61 | 983.4 |
| 20260509233125 | 76 | 270 | 0.0 | 0.0 | 0.00 | 0.00 | 0.00 | 59 | 983.2 |
| 20260509232125 | 77 | 113 | 0.0 | 0.0 | 0.00 | 0.00 | 0.00 | 57 | 983.2 |
| 20260509231122 | 78 | 248 | 0.0 | 0.0 | 0.00 | 0.00 | 0.00 | 55 | 983.2 |
| 20260509230122 | 78 | 270 | 0.0 | 0.0 | 0.00 | 0.00 | 0.00 | 54 | 983.2 |
| 20260509225122 | 78 | 270 | 0.0 | 0.0 | 0.00 | 0.00 | 0.00 | 51 | 983.2 |
| 20260509224122 | 78 | 158 | 0.0 | 0.0 | 0.00 | 0.00 | 0.00 | 53 | 983.1 |
| 20260509223122 | 79 | 293 | 0.0 | 0.0 | 0.00 | 0.00 | 0.00 | 49 | 983.1 |
| 20260509222123 | 79 | 356 | 0.0 | 1.7 | 0.00 | 0.00 | 0.00 | 52 | 983.0 |
| 20260509221123 | 79 | 203 | 0.0 | 0.0 | 0.00 | 0.00 | 0.00 | 49 | 983.2 |
| 20260509220144 | 81 | 113 | 0.0 | 0.0 | 0.00 | 0.00 | 0.00 | 46 | 983.2 |
| 20260509215122 | 81 | 203 | 0.0 | 0.0 | 0.00 | 0.00 | 0.00 | 48 | 983.1 |
| 20260509214123 | 81 | 203 | 0.0 | 0.0 | 0.00 | 0.00 | 0.00 | 48 | 982.9 |
| 20260509213122 | 82 | 225 | 0.0 | 0.0 | 0.00 | 0.00 | 0.00 | 47 | 982.9 |
| 20260509212143 | 82 | 180 | 0.0 | 0.0 | 0.00 | 0.00 | 0.00 | 47 | 982.9 |
| 20260509211122 | 83 | 329 | 0.9 | 2.6 | 0.00 | 0.00 | 0.00 | 46 | 982.7 |
| 20260509210122 | 84 | 222 | 0.0 | 1.7 | 0.00 | 0.00 | 0.00 | 45 | 982.7 |
| 20260509205122 | 86 | 292 | 0.0 | 1.7 | 0.00 | 0.00 | 0.00 | 45 | 982.8 |
| 20260509204122 | 89 | 65 | 0.0 | 2.6 | 0.00 | 0.00 | 0.00 | 42 | 982.9 |
| 20260509203122 | 89 | 360 | 0.0 | 0.0 | 0.00 | 0.00 | 0.00 | 42 | 982.8 |
| 20260509202122 | 88 | 180 | 0.0 | 1.7 | 0.00 | 0.00 | 0.00 | 44 | 982.8 |
| 20260509201122 | 90 | 158 | 0.0 | 0.0 | 0.00 | 0.00 | 0.00 | 41 | 983.0 |
| 20260509200123 | 89 | 105 | 0.9 | 2.6 | 0.00 | 0.00 | 0.00 | 42 | 983.2 |
| 20260509195122 | 88 | 180 | 0.0 | 0.0 | 0.00 | 0.00 | 0.00 | 45 | 983.2 |
| 20260509194143 | 90 | 128 | 0.9 | 2.6 | 0.00 | 0.00 | 0.00 | 43 | 983.2 |
| 20260509193143 | 90 | 113 | 0.0 | 0.0 | 0.00 | 0.00 | 0.00 | 43 | 983.2 |
| 20260509192122 | 89 | 6 | 0.0 | 2.6 | 0.00 | 0.00 | 0.00 | 44 | 983.5 |
| 20260509191122 | 90 | 246 | 0.0 | 1.7 | 0.00 | 0.00 | 0.00 | 44 | 983.4 |
| 20260509190143 | 90 | 119 | 0.9 | 2.6 | 0.00 | 0.00 | 0.00 | 44 | 983.5 |
| 20260509185122 | 89 | 215 | 0.0 | 2.6 | 0.00 | 0.00 | 0.00 | 47 | 983.5 |
| 20260509184122 | 90 | 94 | 0.9 | 3.5 | 0.00 | 0.00 | 0.00 | 45 | 983.5 |
| 20260509183122 | 89 | 44 | 0.0 | 3.5 | 0.00 | 0.00 | 0.00 | 46 | 983.5 |
| 20260509182122 | 90 | 225 | 0.0 | 0.0 | 0.00 | 0.00 | 0.00 | 45 | 983.4 |
| 20260509181123 | 87 | 293 | 0.0 | 0.0 | 0.00 | 0.00 | 0.00 | 48 | 983.4 |
| 20260509180122 | 86 | 90 | 0.0 | 0.0 | 0.00 | 0.00 | 0.00 | 49 | 983.2 |
| 20260509175123 | 85 | 68 | 0.0 | 0.0 | 0.00 | 0.00 | 0.00 | 51 | 983.2 |
| 20260509174122 | 85 | 113 | 0.0 | 0.0 | 0.00 | 0.00 | 0.00 | 51 | 983.4 |
| 20260509173122 | 87 | 65 | 0.0 | 2.6 | 0.00 | 0.00 | 0.00 | 47 | 983.2 |
| 20260509172143 | 86 | 58 | 0.0 | 2.6 | 0.00 | 0.00 | 0.00 | 50 | 983.4 |
| 20260509171122 | 89 | 360 | 0.0 | 1.7 | 0.00 | 0.00 | 0.00 | 48 | 983.4 |
| 20260509170123 | 89 | 281 | 0.0 | 0.9 | 0.00 | 0.00 | 0.00 | 46 | 983.4 |
| 20260509165143 | 88 | 216 | 0.0 | 2.6 | 0.00 | 0.00 | 0.00 | 50 | 983.4 |
| 20260509164126 | 89 | 243 | 0.0 | 1.7 | 0.00 | 0.00 | 0.00 | 47 | 983.5 |
| 20260509163124 | 85 | 248 | 0.0 | 0.0 | 0.00 | 0.00 | 0.00 | 52 | 983.4 |
| 20260509162124 | 86 | 236 | 0.0 | 3.5 | 0.00 | 0.00 | 0.00 | 51 | 983.4 |
| 20260509161143 | 86 | 60 | 0.9 | 4.3 | 0.00 | 0.00 | 0.00 | 52 | 983.4 |
| 20260509160122 | 85 | 248 | 0.0 | 0.0 | 0.00 | 0.00 | 0.00 | 53 | 983.4 |
| 20260509155143 | 81 | 82 | 0.0 | 3.5 | 0.00 | 0.00 | 0.00 | 58 | 983.5 |
| 20260509154122 | 83 | 39 | 0.9 | 3.5 | 0.00 | 0.00 | 0.00 | 56 | 983.5 |
| 20260509153143 | 81 | 229 | 0.9 | 2.6 | 0.00 | 0.00 | 0.00 | 59 | 983.2 |
| 20260509152125 | 79 | 96 | 0.9 | 2.6 | 0.00 | 0.00 | 0.00 | 63 | 983.2 |
| 20260509151126 | 78 | 104 | 0.9 | 3.5 | 0.00 | 0.00 | 0.00 | 65 | 983.1 |
| 20260509150125 | 75 | 113 | 0.0 | 1.7 | 0.00 | 0.00 | 0.00 | 70 | 983.1 |
| 20260509145122 | 76 | 84 | 0.9 | 2.6 | 0.00 | 0.00 | 0.00 | 70 | 983.1 |
| 20260509144122 | 70 | 203 | 0.0 | 0.0 | 0.00 | 0.00 | 0.00 | 80 | 983.0 |
| 20260509143143 | 67 | 45 | 0.0 | 1.7 | 0.00 | 0.00 | 0.00 | 84 | 982.9 |
| 20260509142122 | 66 | 141 | 0.0 | 2.6 | 0.00 | 0.00 | 0.00 | 85 | 983.0 |
| 20260509141122 | 64 | 224 | 0.9 | 2.6 | 0.00 | 0.00 | 0.00 | 87 | 983.0 |
| 20260509140126 | 64 | 165 | 0.9 | 3.5 | 0.00 | 0.00 | 0.00 | 88 | 983.0 |
| 20260509135125 | 64 | 162 | 0.0 | 2.6 | 0.00 | 0.00 | 0.00 | 88 | 982.9 |
| 20260509134124 | 63 | 233 | 0.0 | 3.5 | 0.00 | 0.00 | 0.00 | 88 | 983.0 |
| 20260509133122 | 63 | 180 | 0.9 | 4.3 | 0.00 | 0.00 | 0.00 | 90 | 982.9 |
| 20260509132122 | 62 | 225 | 0.0 | 1.7 | 0.00 | 0.00 | 0.00 | 90 | 982.9 |
| 20260509131143 | 62 | 235 | 0.0 | 1.7 | 0.00 | 0.00 | 0.00 | 91 | 982.9 |
| 20260509130122 | 61 | 227 | 0.9 | 2.6 | 0.00 | 0.00 | 0.00 | 92 | 982.9 |
| 20260509125122 | 60 | 225 | 0.0 | 1.7 | 0.00 | 0.00 | 0.00 | 93 | 982.7 |
| 20260509124122 | 60 | 236 | 0.9 | 2.6 | 0.00 | 0.00 | 0.00 | 93 | 982.7 |
| 20260509123122 | 59 | 225 | 0.0 | 1.7 | 0.00 | 0.00 | 0.00 | 94 | 982.9 |
| 20260509122122 | 59 | 253 | 0.0 | 2.6 | 0.00 | 0.00 | 0.00 | 94 | 982.9 |
| 20260509121123 | 58 | 225 | 0.0 | 2.6 | 0.00 | 0.00 | 0.00 | 94 | 982.7 |
| 20260509120122 | 57 | 225 | 0.0 | 0.0 | 0.00 | 0.00 | 0.00 | 94 | 982.7 |
| 20260509115122 | 57 | 225 | 0.0 | 0.0 | 0.00 | 0.00 | 0.00 | 94 | 982.4 |
| 20260509114122 | 57 | 225 | 0.0 | 0.0 | 0.00 | 0.00 | 0.00 | 94 | 982.0 |
| 20260509113122 | 57 | 225 | 0.0 | 0.0 | 0.00 | 0.00 | 0.00 | 94 | 981.9 |
| 20260509112125 | 56 | 270 | 0.0 | 0.0 | 0.00 | 0.00 | 0.00 | 94 | 981.9 |
| 20260509111145 | 56 | 225 | 0.0 | 0.0 | 0.00 | 0.00 | 0.00 | 94 | 981.9 |
| 20260509110122 | 56 | 225 | 0.0 | 0.0 | 0.00 | 0.00 | 0.00 | 94 | 981.9 |
| 20260509105122 | 56 | 225 | 0.0 | 0.0 | 0.00 | 0.00 | 0.00 | 94 | 981.7 |
| 20260509104122 | 56 | 225 | 0.0 | 0.0 | 0.00 | 0.00 | 0.00 | 93 | 981.9 |
| 20260509103123 | 55 | 225 | 0.0 | 0.0 | 0.00 | 0.00 | 0.00 | 93 | 981.9 |
| 20260509102122 | 55 | 225 | 0.0 | 0.0 | 0.00 | 0.00 | 0.00 | 93 | 981.8 |
| 20260509101122 | 55 | 270 | 0.0 | 0.0 | 0.00 | 0.00 | 0.00 | 93 | 981.9 |
| 20260509100122 | 55 | 180 | 0.0 | 0.0 | 0.00 | 0.00 | 0.00 | 93 | 981.9 |
| 20260509095125 | 55 | 360 | 0.0 | 0.0 | 0.00 | 0.00 | 0.00 | 92 | 982.1 |
| 20260509094124 | 56 | 45 | 0.0 | 0.0 | 0.00 | 0.00 | 0.00 | 91 | 982.2 |
| 20260509093122 | 56 | 68 | 0.0 | 0.0 | 0.00 | 0.00 | 0.00 | 91 | 982.2 |
| 20260509092123 | 56 | 68 | 0.0 | 0.0 | 0.00 | 0.00 | 0.00 | 91 | 982.2 |
| 20260509091122 | 57 | 68 | 0.0 | 0.0 | 0.00 | 0.00 | 0.00 | 91 | 982.2 |
| 20260509090122 | 57 | 68 | 0.0 | 0.0 | 0.00 | 0.00 | 0.00 | 90 | 982.4 |
| 20260509085122 | 57 | 68 | 0.0 | 0.0 | 0.00 | 0.00 | 0.00 | 90 | 982.4 |
| 20260509084143 | 57 | 225 | 0.0 | 0.0 | 0.00 | 0.00 | 0.00 | 90 | 982.2 |
| 20260509083122 | 57 | 225 | 0.0 | 0.0 | 0.00 | 0.00 | 0.00 | 90 | 982.1 |
| 20260509082122 | 58 | 135 | 0.0 | 0.0 | 0.00 | 0.00 | 0.00 | 90 | 982.2 |
| 20260509081143 | 58 | 203 | 0.0 | 0.0 | 0.00 | 0.00 | 0.00 | 89 | 982.2 |
| 20260509080122 | 57 | 248 | 0.0 | 0.0 | 0.00 | 0.00 | 0.00 | 89 | 982.1 |
| 20260509075144 | 58 | 158 | 0.0 | 0.0 | 0.00 | 0.00 | 0.00 | 89 | 982.1 |
| 20260509074122 | 57 | 68 | 0.0 | 0.0 | 0.00 | 0.00 | 0.00 | 90 | 982.1 |
| 20260509073122 | 57 | 68 | 0.0 | 0.0 | 0.00 | 0.00 | 0.00 | 89 | 981.6 |
| 20260509072122 | 57 | 90 | 0.0 | 0.0 | 0.00 | 0.00 | 0.00 | 89 | 982.1 |
| 20260509071122 | 57 | 90 | 0.0 | 0.0 | 0.00 | 0.00 | 0.00 | 90 | 982.2 |
| 20260509070125 | 57 | 45 | 0.0 | 0.0 | 0.00 | 0.00 | 0.00 | 90 | 982.2 |
| 20260509065123 | 57 | 45 | 0.0 | 0.0 | 0.00 | 0.00 | 0.00 | 88 | 982.6 |
| 20260509064122 | 57 | 45 | 0.0 | 0.0 | 0.00 | 0.00 | 0.00 | 87 | 982.8 |
| 20260509063122 | 57 | 45 | 0.0 | 0.0 | 0.00 | 0.00 | 0.00 | 88 | 982.9 |
| 20260509062144 | 58 | 45 | 0.0 | 0.0 | 0.00 | 0.00 | 0.00 | 85 | 983.1 |
| 20260509061123 | 59 | 203 | 0.0 | 0.0 | 0.00 | 0.00 | 0.00 | 84 | 983.2 |
| 20260509060124 | 59 | 203 | 0.0 | 0.0 | 0.00 | 0.00 | 0.00 | 84 | 983.1 |
| 20260509055126 | 59 | 203 | 0.0 | 0.0 | 0.00 | 0.00 | 0.00 | 84 | 983.1 |
| 20260509054122 | 60 | 203 | 0.0 | 0.0 | 0.00 | 0.00 | 0.00 | 84 | 983.2 |
| 20260509053123 | 60 | 203 | 0.0 | 0.0 | 0.00 | 0.00 | 0.00 | 84 | 983.4 |
| 20260509052122 | 60 | 225 | 0.0 | 0.0 | 0.00 | 0.00 | 0.00 | 83 | 983.2 |
| 20260509051122 | 60 | 203 | 0.0 | 0.0 | 0.00 | 0.00 | 0.00 | 82 | 983.2 |
| 20260509050122 | 60 | 225 | 0.0 | 0.0 | 0.00 | 0.00 | 0.00 | 81 | 983.0 |
| 20260509045122 | 61 | 90 | 0.0 | 0.0 | 0.00 | 0.00 | 0.00 | 80 | 983.0 |
| 20260509044122 | 61 | 135 | 0.0 | 0.0 | 0.00 | 0.00 | 0.00 | 80 | 983.1 |